STARLINK-33907, 63769

Orbit data source: Space-Track

STARLINK-33907, 63769 is a payload satellite owned by SpaceX/Seattle (US) in LEO that was launched on Tue, 29 Apr 2025 UTC via an FALCON 9 launch vehicle from the Air Force Eastern Test Range (AFETR). Payload-class satellites include a variety of spacecraft equipped with specific instruments for various scientific and technological missions. These include communications satellites like Starlink; space stations such as the ISS; scientific satellites like the Hubble; Earth observation satellites from companies like Planet Labs, Umbra, and HawkEye 360; GPS; miniature CubeSats for education and research; and military/defense satellites.

Loading next visibility...
Identifier
63769, 2025-089U
Orbit
LEO
Country
Flag of USUS
Related business
Manufacturer
SpaceX/Seattle
Mission
Operational Commercial Communications
Bus & Motor
STARLINK V2MO, Unknown motor
Mass
575 kg wet, ~530 kg dry
Launch date (UTC)
2025-04-29 (1 year ago)
Launch vehicle
FALCON 9
Launch site
Air Force Eastern Test Range (AFETR)
Object type
Payload
Rocket body
Debris
Shape & HBR
Box + 2 Pan, 17.7 m
Radar Cross Section
36.964 m², Large (>1 m²)

Expand to show TLE details & history
Last TLE update: 19 hours ago

TLE from 19 hours ago
0 STARLINK-33907
1 63769U 25089U   26171.06450702  .00014592  00000-0  53855-3 0  9996
2 63769  42.9970 187.1400 0002591 280.4400  79.6160 15.27589252 64566
Epoch: 2026-06-20T01:32Z
TLE epoch observation values (Epoch: 2026-06-20T01:32:53.406Z)
Latitude
0.00001°
Longitude
-104.36701°
Altitude
482.477 km
Speed
7.626 km/s
True Right ascension
12h 28m 33s
True Declination
0° 00' 00"
Sunlit
Object was in daylight at epoch
Visualization orbit readout
Latitude
Unknown
Longitude
Unknown
Altitude
Unknown
Speed
Unknown
Apparent Right ascension
Unknown
Apparent Declination
Unknown
Sunlit
N/A
Visualization observer readout
Local Sidereal Time
07:16:54
Azimuth
Unknown
Elevation
Unknown
Doppler factor
Unknown
Orbital elements
Apogee altitude
486.745 km
Perigee altitude
483.189 km
Semi-major axis
6,863.104 km
Eccentricity
0.00026
Inclination
42.997°
RAAN
187.14°
Arg. of periapsis
280.44°
True anomaly
79.64521°
Mean anomaly
79.616°
Eccentric anomaly
79.6306°
Mean motion
3.81735 °/min
Orbital period
94.31 mins
BSTAR
0.00053855
Loading maneuver chart data...
Computing Atmospheric mass density...
Loading historical data...
Loading historical data...
Loading historical data...
Loading historical data...
Loading historical data...
Loading historical data...
Loading historical data...

Documentation

Showing up to 5 results
|